Weather History for Carbondale, IL

Change the Weather History Date:

Saturday, April 5, 2014

  Actual Average Record
Temperature  
Mean Temperature 48 °F -  
Max Temperature 55 °F 60 °F 85 °F (1932)
Min Temperature 42 °F 38 °F 24 °F (1920)
Degree Days  
Heating Degree Days 17    
Moisture  
Dew Point 31 °F    
Average Humidity 55    
Maximum Humidity 68    
Minimum Humidity 44    
Precipitation  
Precipitation 0.00 in - - ()
Sea Level Pressure  
Sea Level Pressure 30.19 in    
Wind  
Wind Speed 8 mph (NNE)    
Max Wind Speed 15 mph    
Max Gust Speed -    
Visibility 10 miles    
Events      
Averages and records for this station are not official NWS values.
T = Trace of Precipitation, MM = Missing Value Source: NWS Daily Summary

Daily Weather History Graph

Daily Weather History Graph

Search for Another Location

Airport:

Trip Planner

Search our weather history database for the weather conditions in past years. The results will help you decide how hot, cold, wet, or windy it might be!

Date:

Astronomy

Apr. 05, 2014 Rise Set
Actual Time 6:36 AM CDT 7:23 PM CDT
Civil Twilight 6:09 AM CDT 7:50 PM CDT
Nautical Twilight 5:38 AM CDT 8:21 PM CDT
Astronomical Twilight 5:05 AM CDT 8:54 PM CDT
Moon 10:47 AM CDT (4/5) 12:29 AM CDT (4/5)
Length of Visible Light 13h 40m
Length of Day
12h 47m
Waxing Crescent, 34% of the Moon is Illuminated
Apr 5
Waxing Crescent
Apr 7
First Quarter
Apr 15
Full
Apr 22
Last Quarter
Apr 29
New

Hourly Weather History & Observations

Time (CDT) Temp. Windchill Dew Point Humidity Pressure Visibility Wind Dir Wind Speed Gust Speed Precip Events Conditions
12:52 AM 44.1 °F 38.1 °F 30.0 °F 58% 30.16 in 10.0 mi NNW 11.5 mph - N/A   Overcast
1:52 AM 43.0 °F 35.7 °F 30.0 °F 60% 30.16 in 10.0 mi North 15.0 mph - N/A   Overcast
2:52 AM 43.0 °F 38.2 °F 30.9 °F 62% 30.17 in 10.0 mi NNW 8.1 mph - N/A   Overcast
3:52 AM 43.0 °F 38.2 °F 30.9 °F 62% 30.17 in 10.0 mi NNW 8.1 mph - N/A   Overcast
4:52 AM 43.0 °F 38.2 °F 28.0 °F 56% 30.18 in 10.0 mi North 8.1 mph - N/A   Overcast
5:52 AM 42.1 °F 36.6 °F 27.0 °F 55% 30.19 in 10.0 mi North 9.2 mph - N/A   Overcast
6:52 AM 42.1 °F 37.7 °F 28.0 °F 58% 30.21 in 10.0 mi North 6.9 mph - N/A   Overcast
7:52 AM 42.1 °F 38.4 °F 28.0 °F 58% 30.22 in 10.0 mi North 5.8 mph - N/A   Mostly Cloudy
8:52 AM 43.0 °F 38.2 °F 28.9 °F 58% 30.23 in 10.0 mi North 8.1 mph - N/A   Clear
9:52 AM 45.0 °F 40.6 °F 28.9 °F 53% 30.25 in 10.0 mi North 8.1 mph - N/A   Overcast
10:52 AM 46.9 °F - 28.9 °F 50% 30.25 in 10.0 mi North 9.2 mph - N/A   Mostly Cloudy
11:52 AM 48.0 °F - 28.0 °F 46% 30.25 in 10.0 mi Calm Calm - N/A   Scattered Clouds
12:52 PM 50.0 °F - 30.9 °F 48% 30.23 in 10.0 mi NE 6.9 mph - N/A   Scattered Clouds
1:52 PM 51.1 °F - 30.0 °F 44% 30.21 in 10.0 mi Calm Calm - N/A   Partly Cloudy
2:52 PM 53.1 °F - 33.1 °F 47% 30.19 in 10.0 mi NNE 6.9 mph - N/A   Clear
3:52 PM 54.0 °F - 33.1 °F 45% 30.18 in 10.0 mi Variable 5.8 mph - N/A   Clear
4:52 PM 53.1 °F - 33.1 °F 47% 30.16 in 10.0 mi Calm Calm - N/A   Clear
5:52 PM 53.1 °F - 32.0 °F 45% 30.15 in 10.0 mi NNE 8.1 mph - N/A   Clear
6:52 PM 51.1 °F - 33.1 °F 50% 30.15 in 10.0 mi NE 6.9 mph - N/A   Clear
7:52 PM 48.0 °F - 33.1 °F 56% 30.16 in 10.0 mi NE 4.6 mph - N/A   Clear
8:52 PM 46.9 °F - 34.0 °F 61% 30.17 in 10.0 mi ENE 5.8 mph - N/A   Clear
9:52 PM 45.0 °F 41.8 °F 35.1 °F 68% 30.17 in 10.0 mi East 5.8 mph - N/A   Clear
10:52 PM 44.1 °F 40.1 °F 34.0 °F 68% 30.16 in 10.0 mi East 6.9 mph - N/A   Clear
11:52 PM 43.0 °F 41.3 °F 33.1 °F 68% 30.16 in 10.0 mi ENE 3.5 mph - N/A   Clear